IZ2XCK-13 Weather Reports


time (UTC)temp
C
wind
direction
speed
KPH
gust
KPH
rain 1hr
cm
rain 24hr
cm
rain mn
cm
humidity
%
barometer
mb
20260507180511 15 0.0 0.0 0.00 0.00 0.00 62 1014.5
20260507174510 16 0.0 0.0 0.00 0.00 0.00 58 1014.2
20260507172510 16 0.0 0.0 0.00 0.00 0.00 56 1013.9
20260507170510 16 0.0 0.0 0.00 0.00 0.00 56 1013.8
20260507164510 17 0.0 0.0 0.00 0.00 0.00 54 1013.8
20260507162509 17 0.0 0.0 0.00 0.00 0.00 52 1013.7
20260507160509 17 0.0 0.0 0.00 0.00 0.00 50 1013.6
20260507154509 17 0.0 0.0 0.00 0.00 0.00 50 1013.5
20260507152508 18 0.0 0.0 0.00 0.00 0.00 49 1013.4
20260507150508 20 0.0 0.0 0.00 0.00 0.00 44 1013.4
20260507144508 21 0.0 0.0 0.00 0.00 0.00 41 1013.5
20260507142507 19 0.0 0.0 0.00 0.00 0.00 46 1013.8
20260507140507 17 0.0 0.0 0.00 0.00 0.00 51 1013.8
20260507134507 19 0.0 0.0 0.00 0.00 0.00 44 1014.1
20260507132506 20 0.0 0.0 0.00 0.00 0.00 44 1014.3
20260507130506 18 0.0 0.0 0.00 0.00 0.00 54 1014.3
20260507124506 16 0.0 0.0 0.00 0.00 0.00 55 1014.3
20260507122505 17 0.0 0.0 0.00 0.00 0.00 54 1014.3
20260507120505 15 0.0 0.0 0.00 0.00 0.00 64 1014.2
20260507114505 16 0.0 0.0 0.00 0.00 0.00 56 1014.2
20260507112505 17 0.0 0.0 0.00 0.00 0.00 57 1014.5
20260507110504 17 0.0 0.0 0.00 0.00 0.00 56 1014.6
20260507104504 16 0.0 0.0 0.00 0.00 0.00 60 1014.5
20260507102503 15 0.0 0.0 0.00 0.00 0.00 57 1014.6
20260507100503 15 0.0 0.0 0.00 0.00 0.00 61 1014.9
20260507094503 15 0.0 0.0 0.00 0.00 0.00 64 1014.8
20260507092503 14 0.0 0.0 0.00 0.00 0.00 61 1014.7
20260507090502 14 0.0 0.0 0.00 0.00 0.00 64 1014.6
20260507084502 15 0.0 0.0 0.00 0.00 0.00 64 1014.6
20260507082502 13 0.0 0.0 0.00 0.00 0.00 65 1014.4
20260507080501 13 0.0 0.0 0.00 0.00 0.00 66 1014.3
20260507074501 12 0.0 0.0 0.00 0.00 0.00 71 1014.3
20260507072501 12 0.0 0.0 0.00 0.00 0.00 70 1014.2
20260507070500 12 0.0 0.0 0.00 0.00 0.00 73 1014.1
20260507064500 11 0.0 0.0 0.00 0.00 0.00 74 1014.3
20260507062500 11 0.0 0.0 0.00 0.00 0.00 75 1014.2
20260507060459 10 0.0 0.0 0.00 0.00 0.00 75 1014.0
20260507054459 9 0.0 0.0 0.00 0.00 0.00 79 1013.9
20260507052500 9 0.0 0.0 0.00 0.00 0.00 82 1013.9
20260507050459 9 0.0 0.0 0.00 0.00 0.00 80 1013.9
20260507044458 10 0.0 0.0 0.00 0.00 0.00 85 1013.8
20260507042458 10 0.0 0.0 0.00 0.00 0.00 84 1013.7
20260507040458 10 0.0 0.0 0.00 0.00 0.00 85 1013.6
20260507034457 10 0.0 0.0 0.00 0.00 0.00 87 1013.4
20260507032457 10 0.0 0.0 0.00 0.00 0.00 87 1013.2
20260507030457 10 0.0 0.0 0.00 0.00 0.00 86 1013.2
20260507024457 10 0.0 0.0 0.00 0.00 0.00 86 1013.1
20260507022456 10 0.0 0.0 0.00 0.00 0.00 83 1013.2
20260507020456 10 0.0 0.0 0.00 0.00 0.00 87 1013.2
20260507014456 10 0.0 0.0 0.00 0.00 0.00 82 1013.0
20260507012455 10 0.0 0.0 0.00 0.00 0.00 84 1012.9
20260507010455 10 0.0 0.0 0.00 0.00 0.00 88 1013.1
20260507004455 10 0.0 0.0 0.00 0.00 0.00 91 1013.5
20260507002454 10 0.0 0.0 0.00 0.00 0.00 87 1012.9
20260507000454 10 0.0 0.0 0.00 0.00 0.00 90 1012.9
20260506234454 10 0.0 0.0 0.00 0.00 0.00 95 1013.1
20260506232453 10 0.0 0.0 0.00 0.00 0.00 85 1013.1
20260506230453 11 0.0 0.0 0.00 0.00 0.00 83 1013.2
20260506224453 10 0.0 0.0 0.00 0.00 0.00 90 1013.5
20260506222452 11 0.0 0.0 0.00 0.00 0.00 84 1013.5
20260506220452 10 0.0 0.0 0.00 0.00 0.00 86 1013.1
20260506214452 11 0.0 0.0 0.00 0.00 0.00 80 1013.0
20260506212451 10 0.0 0.0 0.00 0.00 0.00 81 1013.2
20260506210451 11 0.0 0.0 0.00 0.00 0.00 80 1013.2
20260506204451 10 0.0 0.0 0.00 0.00 0.00 84 1013.1
20260506202451 10 0.0 0.0 0.00 0.00 0.00 83 1013.2
20260506200450 10 0.0 0.0 0.00 0.00 0.00 85 1013.0
20260506194450 11 0.0 0.0 0.00 0.00 0.00 82 1012.8
20260506192555 10 0.0 0.0 0.00 0.00 0.00 90 1013.3
20260506184553 11 0.0 0.0 0.00 0.00 0.00 94 1013.0
20260506182552 12 0.0 0.0 0.00 0.00 0.00 88 1011.9